TimePST,TemperatureF,Dew PointF,Humidity,Sea Level PressureIn,VisibilityMPH,Wind Direction,Wind SpeedMPH,Gust SpeedMPH,PrecipitationIn,Events,Conditions,WindDirDegrees,DateUTC
12:56 AM,29.8,24.6,81,30.41,10.0,ESE,2.3,-,N/A,,Mostly Cloudy,120,2013-12-14 08:56:00
1:28 AM,35.6,26.6,70,30.39,12.0,WNW,18.4,25.3,N/A,,Mostly Cloudy,300,2013-12-14 09:28:00
1:35 AM,32.0,24.8,75,30.41,10.0,West,11.5,23.0,N/A,,Mostly Cloudy,260,2013-12-14 09:35:00
1:56 AM,31.3,24.6,76,30.39,9.0,SE,9.2,-,N/A,,Mostly Cloudy,140,2013-12-14 09:56:00
2:56 AM,31.8,25.7,78,30.41,12.0,SE,5.8,-,N/A,,Mostly Cloudy,130,2013-12-14 10:56:00
3:56 AM,30.0,24.8,81,30.39,9.0,WSW,2.3,-,N/A,,Mostly Cloudy,250,2013-12-14 11:56:00
4:56 AM,29.8,24.3,80,30.39,10.0,SE,1.2,-,N/A,,Mostly Cloudy,140,2013-12-14 12:56:00
5:56 AM,30.7,27.0,86,30.38,12.0,ESE,5.8,-,N/A,,Mostly Cloudy,120,2013-12-14 13:56:00
6:56 AM,29.7,25.5,85,30.38,9.0,SW,5.8,-,N/A,,Mostly Cloudy,230,2013-12-14 14:56:00
7:56 AM,29.1,25.0,85,30.38,8.0,East,5.8,-,N/A,,Mostly Cloudy,100,2013-12-14 15:56:00
8:56 AM,33.1,26.6,77,30.39,10.0,WSW,4.6,-,N/A,,Mostly Cloudy,240,2013-12-14 16:56:00
9:56 AM,32.7,26.6,78,30.40,9.0,Calm,Calm,-,N/A,,Overcast,0,2013-12-14 17:56:00
10:56 AM,33.6,26.8,76,30.37,9.0,NW,1.2,-,N/A,,Overcast,320,2013-12-14 18:56:00
11:56 AM,37.8,28.4,69,30.35,11.0,Variable,1.2,-,N/A,,Scattered Clouds,0,2013-12-14 19:56:00
12:56 PM,40.3,29.1,64,30.33,11.0,NNW,3.5,-,N/A,,Clear,340,2013-12-14 20:56:00
1:56 PM,39.6,28.6,65,30.33,9.0,West,3.5,-,N/A,,Clear,270,2013-12-14 21:56:00
2:56 PM,40.1,28.9,64,30.31,10.0,West,2.3,-,N/A,,Mostly Cloudy,260,2013-12-14 22:56:00
3:56 PM,36.9,27.7,69,30.32,9.0,SSE,2.3,-,N/A,,Partly Cloudy,150,2013-12-14 23:56:00
4:56 PM,34.3,28.4,79,30.31,11.0,SSE,3.5,-,N/A,,Clear,160,2013-12-15 00:56:00
5:56 PM,33.6,27.9,79,30.30,9.0,WNW,2.3,-,N/A,,Clear,300,2013-12-15 01:56:00
6:56 PM,32.2,27.5,83,30.31,9.0,Variable,1.2,-,N/A,,Clear,0,2013-12-15 02:56:00
7:56 PM,28.6,25.5,88,30.29,7.0,Variable,1.2,-,N/A,,Clear,0,2013-12-15 03:56:00
8:56 PM,28.4,25.9,90,30.29,7.0,South,4.6,-,N/A,,Clear,190,2013-12-15 04:56:00
9:56 PM,28.4,25.3,88,30.31,6.0,Variable,2.3,-,N/A,,Clear,0,2013-12-15 05:56:00
10:56 PM,28.9,24.8,84,30.31,7.0,SSW,3.5,-,N/A,,Clear,210,2013-12-15 06:56:00
11:56 PM,24.6,22.5,91,30.30,3.0,WSW,6.9,-,N/A,,Clear,240,2013-12-15 07:56:00